Location: Newark
(42.8481°N, 0.4872°E)
Time: 08:54:29
(UTC+00:00)

Transit 2A Rocket - Pass Details

Date: 31 October 2020
Orbit: 588 x 914 km, 66.7° (Epoch: 29 November)

Event Time Altitude Azimuth Distance (km) Brightness Sun altitude
Rises 17:20:44 0° 330° (NNW) 3,280 8.5 -6.0°
Reaches altitude 10° 17:23:17 10° 333° (NNW) 2,294 7.6 -6.5°
Maximum altitude 17:28:28 67° 57° (ENE) 767 4.8 -7.4°
Drops below altitude 10° 17:33:08 10° 140° (SE) 2,073 7.0 -8.2°
Sets 17:35:20 0° 143° (SE) 2,938 7.8 -8.6°
